Year,Month,Day,Hour,Minute,Value (Times are PST for temperature in C)
2009,04,07,00,00,6.20
2009,04,07,00,01,6.20
2009,04,07,00,02,6.10
2009,04,07,00,03,6.10
2009,04,07,00,04,6.10
2009,04,07,00,05,6.10
2009,04,07,00,06,6.10
2009,04,07,00,07,6.10
2009,04,07,00,08,6.00
2009,04,07,00,09,6.00
2009,04,07,00,10,6.00
2009,04,07,00,11,5.90
2009,04,07,00,12,5.90
2009,04,07,01,02,5.10
2009,04,07,01,03,5.10
2009,04,07,01,04,5.10
2009,04,07,01,05,5.10
2009,04,07,01,06,5.10
2009,04,07,01,07,5.10
2009,04,07,01,08,5.00
2009,04,07,01,09,5.00
2009,04,07,01,10,5.00
2009,04,07,01,11,4.90
2009,04,07,01,12,4.90
2009,04,07,01,13,4.90
2009,04,07,01,14,4.80
2009,04,07,01,15,4.80
2009,04,07,01,16,4.80
2009,04,07,01,17,4.80
2009,04,07,01,18,4.70
2009,04,07,01,19,4.70
2009,04,07,01,20,4.70
2009,04,07,01,21,4.70
2009,04,07,01,22,4.60
2009,04,07,01,23,4.60
2009,04,07,01,24,4.60
2009,04,07,01,25,4.60
2009,04,07,01,26,4.50
2009,04,07,01,27,4.50
2009,04,07,01,28,4.50
2009,04,07,01,29,4.40
2009,04,07,01,30,4.40
2009,04,07,01,31,4.40
2009,04,07,01,32,4.40
2009,04,07,01,33,4.30
2009,04,07,01,34,4.30
2009,04,07,01,35,4.30
2009,04,07,01,36,4.30
2009,04,07,01,37,4.30
2009,04,07,01,38,4.30
2009,04,07,01,39,4.20
2009,04,07,01,40,4.20
2009,04,07,01,41,4.20
2009,04,07,01,42,4.20
2009,04,07,01,43,4.20
2009,04,07,01,44,4.20
2009,04,07,01,45,4.20
2009,04,07,01,46,4.20
2009,04,07,01,47,4.10
2009,04,07,01,48,4.10
2009,04,07,01,49,4.10
2009,04,07,01,50,4.10
2009,04,07,01,51,4.10
2009,04,07,01,52,4.10
2009,04,07,01,53,4.10
2009,04,07,01,54,4.10
2009,04,07,01,55,4.10
2009,04,07,01,56,4.00
2009,04,07,01,57,4.00
2009,04,07,01,58,4.00
2009,04,07,01,59,4.00
2009,04,07,02,00,4.00
2009,04,07,02,01,4.00
2009,04,07,02,02,3.90
2009,04,07,02,03,3.90
2009,04,07,02,04,3.90
2009,04,07,02,05,3.90
2009,04,07,02,06,3.90
2009,04,07,02,07,3.90
2009,04,07,02,08,3.90
2009,04,07,02,09,3.90
2009,04,07,02,10,3.90
2009,04,07,02,11,3.90
2009,04,07,02,12,3.90
2009,04,07,02,13,3.90
2009,04,07,02,14,3.80
2009,04,07,02,15,3.80
2009,04,07,02,16,3.80
2009,04,07,02,17,3.80
2009,04,07,02,18,3.80
2009,04,07,02,19,3.80
2009,04,07,02,20,3.80
2009,04,07,02,21,3.80
2009,04,07,02,22,3.80
2009,04,07,02,23,3.80
2009,04,07,02,24,3.80
2009,04,07,02,25,3.80
2009,04,07,02,26,3.70
2009,04,07,02,27,3.70
2009,04,07,02,28,3.70
2009,04,07,02,29,3.70
2009,04,07,02,30,3.70
2009,04,07,02,31,3.70
2009,04,07,02,32,3.60
2009,04,07,02,33,3.60
2009,04,07,02,34,3.60
2009,04,07,02,35,3.60
2009,04,07,02,36,3.50
2009,04,07,02,37,3.50
2009,04,07,02,38,3.50
2009,04,07,02,39,3.50
2009,04,07,02,40,3.40
2009,04,07,02,41,3.40
2009,04,07,02,42,3.40
2009,04,07,02,43,3.40
2009,04,07,02,44,3.40
2009,04,07,02,45,3.40
2009,04,07,02,46,3.30
2009,04,07,02,47,3.30
2009,04,07,02,48,3.30
2009,04,07,02,49,3.30
2009,04,07,02,50,3.30
2009,04,07,02,51,3.30
2009,04,07,02,52,3.30
2009,04,07,02,53,3.30
2009,04,07,02,54,3.30
2009,04,07,02,55,3.30
2009,04,07,02,56,3.20
2009,04,07,02,57,3.20
2009,04,07,02,58,3.20
2009,04,07,02,59,3.20
2009,04,07,03,00,3.20
2009,04,07,03,01,3.30
2009,04,07,03,02,3.30
2009,04,07,03,03,3.20
2009,04,07,03,04,3.20
2009,04,07,03,05,3.20
2009,04,07,03,06,3.20
2009,04,07,03,07,3.20
2009,04,07,03,08,3.20
2009,04,07,03,09,3.20
2009,04,07,03,10,3.20
2009,04,07,03,11,3.20
2009,04,07,03,12,3.10
2009,04,07,03,13,3.10
2009,04,07,03,14,3.10
2009,04,07,03,15,3.10
2009,04,07,03,16,3.10
2009,04,07,03,17,3.10
2009,04,07,03,18,3.10
2009,04,07,03,19,3.00
2009,04,07,03,20,3.00
2009,04,07,03,21,3.00
2009,04,07,03,22,3.00
2009,04,07,03,23,2.90
2009,04,07,03,24,2.90
2009,04,07,03,25,2.90
2009,04,07,03,26,2.80
2009,04,07,03,27,2.80
2009,04,07,03,28,2.80
2009,04,07,03,29,2.80
2009,04,07,03,30,2.80
2009,04,07,03,31,2.80
2009,04,07,03,32,2.70
2009,04,07,03,33,2.70
2009,04,07,03,34,2.70
2009,04,07,03,35,2.70
2009,04,07,03,36,2.70
2009,04,07,03,37,2.70
2009,04,07,03,38,2.70
2009,04,07,03,39,2.70
2009,04,07,03,40,2.70
2009,04,07,03,41,2.70
2009,04,07,03,42,2.70
2009,04,07,03,43,2.70
2009,04,07,03,44,2.70
2009,04,07,03,45,2.70
2009,04,07,03,46,2.70
2009,04,07,03,47,2.70
2009,04,07,03,48,2.70
2009,04,07,03,49,2.70
2009,04,07,03,50,2.70
2009,04,07,03,51,2.70
2009,04,07,03,52,2.70
2009,04,07,03,53,2.60
2009,04,07,03,54,2.60
2009,04,07,03,55,2.60
2009,04,07,03,56,2.60
2009,04,07,03,57,2.60
2009,04,07,03,58,2.60
2009,04,07,03,59,2.60
2009,04,07,04,00,2.60
2009,04,07,04,01,2.60
2009,04,07,04,02,2.60
2009,04,07,04,03,2.60
2009,04,07,04,04,2.70
2009,04,07,04,05,2.70
2009,04,07,04,06,2.70
2009,04,07,04,07,2.70
2009,04,07,04,08,2.70
2009,04,07,04,09,2.60
2009,04,07,04,10,2.60
2009,04,07,04,11,2.60
2009,04,07,04,12,2.60
2009,04,07,04,13,2.60
2009,04,07,04,14,2.50
2009,04,07,04,15,2.50
2009,04,07,04,16,2.50
2009,04,07,04,17,2.50
2009,04,07,04,18,2.50
2009,04,07,04,19,2.50
2009,04,07,04,20,2.50
2009,04,07,04,21,2.50
2009,04,07,04,22,2.50
2009,04,07,04,23,2.50
2009,04,07,04,24,2.50
2009,04,07,04,25,2.50
2009,04,07,04,26,2.50
2009,04,07,04,27,2.50
2009,04,07,04,28,2.50
2009,04,07,04,29,2.50
2009,04,07,04,30,2.50
2009,04,07,04,31,2.50
2009,04,07,04,32,2.50
2009,04,07,04,33,2.50
2009,04,07,04,34,2.50
2009,04,07,04,35,2.50
2009,04,07,04,36,2.50
2009,04,07,04,37,2.40
2009,04,07,04,38,2.40
2009,04,07,04,39,2.40
2009,04,07,04,40,2.40
2009,04,07,04,41,2.40
2009,04,07,04,42,2.40
2009,04,07,04,43,2.30
2009,04,07,04,44,2.30
2009,04,07,04,45,2.30
2009,04,07,04,46,2.30
2009,04,07,04,47,2.20
2009,04,07,04,48,2.20
2009,04,07,04,49,2.20
2009,04,07,04,50,2.20
2009,04,07,04,51,2.20
2009,04,07,04,52,2.20
2009,04,07,04,53,2.20
2009,04,07,04,54,2.20
2009,04,07,04,55,2.20
2009,04,07,04,56,2.20
2009,04,07,04,57,2.20
2009,04,07,04,58,2.20
2009,04,07,04,59,2.20
2009,04,07,05,00,2.20
2009,04,07,05,01,2.20
2009,04,07,05,02,2.20
2009,04,07,05,03,2.20
2009,04,07,05,04,2.20
2009,04,07,05,05,2.20
2009,04,07,05,06,2.20
2009,04,07,05,07,2.20
2009,04,07,05,08,2.20
2009,04,07,05,09,2.20
2009,04,07,05,10,2.20
2009,04,07,05,11,2.20
2009,04,07,05,12,2.20
2009,04,07,05,13,2.20
2009,04,07,05,14,2.20
2009,04,07,05,15,2.20
2009,04,07,05,16,2.20
2009,04,07,05,17,2.20
2009,04,07,05,18,2.20
2009,04,07,05,19,2.20
2009,04,07,05,20,2.20
2009,04,07,05,21,2.10
2009,04,07,05,22,2.10
2009,04,07,05,23,2.10
2009,04,07,05,24,2.10
2009,04,07,05,25,2.10
2009,04,07,05,26,2.10
2009,04,07,05,27,2.00
2009,04,07,05,28,2.00
2009,04,07,05,29,2.00
2009,04,07,05,30,1.90
2009,04,07,05,31,1.90
2009,04,07,05,32,1.90
2009,04,07,05,33,1.90
2009,04,07,05,34,1.90
2009,04,07,05,35,1.80
2009,04,07,05,36,1.80
2009,04,07,05,37,1.80
2009,04,07,05,38,1.80
2009,04,07,05,39,1.80
2009,04,07,05,40,1.80
2009,04,07,05,41,1.70
2009,04,07,05,42,1.70
2009,04,07,05,43,1.70
2009,04,07,05,44,1.70
2009,04,07,05,45,1.70
2009,04,07,05,46,1.70
2009,04,07,05,47,1.70
2009,04,07,05,48,1.70
2009,04,07,05,49,1.70
2009,04,07,05,50,1.70
2009,04,07,05,51,1.70
2009,04,07,05,52,1.70
2009,04,07,05,53,1.70
2009,04,07,05,54,1.70
2009,04,07,05,55,1.70
2009,04,07,05,56,1.70
2009,04,07,05,57,1.70
2009,04,07,05,58,1.70
2009,04,07,05,59,1.70
2009,04,07,06,00,1.60
2009,04,07,06,01,1.60
2009,04,07,06,02,1.60
2009,04,07,06,03,1.60
2009,04,07,06,04,1.50
2009,04,07,06,05,1.50
2009,04,07,06,06,1.50
2009,04,07,06,07,1.40
2009,04,07,06,08,1.40
2009,04,07,06,09,1.40
2009,04,07,06,10,1.40
2009,04,07,06,11,1.30
2009,04,07,06,12,1.30
2009,04,07,06,13,1.30
2009,04,07,06,14,1.30
2009,04,07,06,15,1.30
2009,04,07,06,16,1.30
2009,04,07,06,17,1.30
2009,04,07,06,18,1.30
2009,04,07,06,19,1.30
2009,04,07,06,20,1.30
2009,04,07,06,21,1.30
2009,04,07,06,22,1.30
2009,04,07,06,23,1.30
2009,04,07,06,24,1.30
2009,04,07,06,25,1.30
2009,04,07,06,26,1.30
2009,04,07,06,27,1.30
2009,04,07,06,28,1.30
2009,04,07,06,29,1.30
2009,04,07,06,30,1.30
2009,04,07,06,31,1.30
2009,04,07,06,32,1.30
2009,04,07,06,33,1.30
2009,04,07,06,34,1.30
2009,04,07,06,35,1.30
2009,04,07,06,36,1.30
2009,04,07,06,37,1.30
2009,04,07,06,38,1.30
2009,04,07,06,39,1.30
2009,04,07,06,40,1.30
2009,04,07,06,41,1.30
2009,04,07,06,42,1.30
2009,04,07,06,43,1.30
2009,04,07,06,44,1.30
2009,04,07,06,45,1.30
2009,04,07,06,46,1.30
2009,04,07,06,47,1.30
2009,04,07,06,48,1.30
2009,04,07,06,49,1.30
2009,04,07,06,50,1.30
2009,04,07,06,51,1.30
2009,04,07,06,52,1.30
2009,04,07,06,53,1.30
2009,04,07,06,54,1.30
2009,04,07,06,55,1.30
2009,04,07,06,56,1.30
2009,04,07,06,57,1.30
2009,04,07,06,58,1.30
2009,04,07,06,59,1.30
2009,04,07,07,00,1.30
2009,04,07,07,01,1.30
2009,04,07,07,02,1.30
2009,04,07,07,03,1.30
2009,04,07,07,04,1.30
2009,04,07,07,05,1.30
2009,04,07,07,06,1.30
2009,04,07,07,07,1.30
2009,04,07,07,08,1.30
2009,04,07,07,09,1.20
2009,04,07,07,10,1.20
2009,04,07,07,11,1.20
2009,04,07,07,12,1.20
2009,04,07,07,13,1.20
2009,04,07,07,14,1.20
2009,04,07,07,15,1.30
2009,04,07,07,16,1.30
2009,04,07,07,17,1.30
2009,04,07,07,18,1.30
2009,04,07,07,19,1.30
2009,04,07,07,20,1.30
2009,04,07,07,21,1.30
2009,04,07,07,22,1.30
2009,04,07,07,23,1.30
2009,04,07,07,24,1.30
2009,04,07,07,25,1.30
2009,04,07,07,26,1.30
2009,04,07,07,27,1.40
2009,04,07,07,28,1.50
2009,04,07,07,29,1.50
2009,04,07,07,30,1.60
2009,04,07,07,31,1.60
2009,04,07,07,32,1.60
2009,04,07,07,33,1.60
2009,04,07,07,34,1.60
2009,04,07,07,35,1.70
2009,04,07,07,36,1.70
2009,04,07,07,37,1.70
2009,04,07,07,38,1.70
2009,04,07,07,39,1.70
2009,04,07,07,40,1.70
2009,04,07,07,41,1.70
2009,04,07,07,42,1.80
2009,04,07,07,43,1.80
2009,04,07,07,44,1.90
2009,04,07,07,45,2.00
2009,04,07,07,46,2.00
2009,04,07,07,47,2.10
2009,04,07,07,48,2.20
2009,04,07,07,49,2.20
2009,04,07,07,50,2.40
2009,04,07,07,51,2.50
2009,04,07,07,52,2.60
2009,04,07,07,53,2.70
2009,04,07,07,54,2.90
2009,04,07,07,55,3.00
2009,04,07,07,56,3.10
2009,04,07,07,57,3.20
2009,04,07,07,58,3.30
2009,04,07,07,59,3.40
2009,04,07,08,00,3.50
2009,04,07,08,01,3.50
2009,04,07,08,02,3.60
2009,04,07,08,03,3.70
2009,04,07,08,04,3.80
2009,04,07,08,05,3.80
2009,04,07,08,06,3.90
2009,04,07,08,07,3.90
2009,04,07,08,08,3.90
2009,04,07,08,09,4.00
2009,04,07,08,10,4.10
2009,04,07,08,11,4.10
2009,04,07,08,12,4.20
2009,04,07,08,13,4.30
2009,04,07,08,14,4.40
2009,04,07,08,15,4.50
2009,04,07,08,16,4.70
2009,04,07,08,17,4.80
2009,04,07,08,18,4.90
2009,04,07,08,19,5.00
2009,04,07,08,20,5.10
2009,04,07,08,21,5.20
2009,04,07,08,22,5.30
2009,04,07,08,23,5.50
2009,04,07,08,24,5.60
2009,04,07,08,25,5.70
2009,04,07,08,26,5.80
2009,04,07,08,27,5.90
2009,04,07,08,28,6.00
2009,04,07,08,29,6.10
2009,04,07,08,30,6.20
2009,04,07,08,31,6.20
2009,04,07,08,32,6.40
2009,04,07,08,33,6.50
2009,04,07,08,34,6.60
2009,04,07,08,35,6.70
2009,04,07,08,36,6.70
2009,04,07,08,37,6.80
2009,04,07,08,38,6.90
2009,04,07,08,39,7.00
2009,04,07,08,40,7.10
2009,04,07,08,41,7.20
2009,04,07,08,42,7.40
2009,04,07,08,43,7.50
2009,04,07,08,44,7.70
2009,04,07,08,45,7.80
2009,04,07,08,46,7.90
2009,04,07,08,47,7.90
2009,04,07,08,48,8.00
2009,04,07,08,49,8.10
2009,04,07,08,50,8.10
2009,04,07,08,51,8.20
2009,04,07,08,52,8.30
2009,04,07,08,53,8.50
2009,04,07,08,54,8.70
2009,04,07,08,55,8.80
2009,04,07,08,56,8.90
2009,04,07,08,57,9.10
2009,04,07,08,58,9.30
2009,04,07,08,59,9.50
2009,04,07,09,00,9.60
2009,04,07,09,01,9.80
2009,04,07,09,02,9.90
2009,04,07,09,03,10.00
2009,04,07,09,04,10.10
2009,04,07,09,05,10.10
2009,04,07,09,06,10.20
2009,04,07,09,07,10.30
2009,04,07,09,08,10.40
2009,04,07,09,09,10.50
2009,04,07,09,10,10.60
2009,04,07,09,11,10.70
2009,04,07,09,12,10.80
2009,04,07,09,13,10.90
2009,04,07,09,14,10.90
2009,04,07,09,15,11.00
2009,04,07,09,16,11.10
2009,04,07,09,17,11.10
2009,04,07,09,18,11.20
2009,04,07,09,19,11.30
2009,04,07,09,20,11.40
2009,04,07,09,21,11.40
2009,04,07,09,22,11.50
2009,04,07,09,23,11.50
2009,04,07,09,24,11.60
2009,04,07,09,25,11.70
2009,04,07,09,26,11.70
2009,04,07,09,27,11.70
2009,04,07,09,28,11.80
2009,04,07,09,29,11.90
2009,04,07,09,30,11.90
2009,04,07,09,31,12.00
2009,04,07,09,32,12.00
2009,04,07,09,33,12.00
2009,04,07,09,34,12.10
2009,04,07,09,35,12.10
2009,04,07,09,36,12.10
2009,04,07,09,37,12.20
2009,04,07,09,38,12.20
2009,04,07,09,39,12.30
2009,04,07,09,40,12.30
2009,04,07,09,41,12.40
2009,04,07,09,42,12.40
2009,04,07,09,43,12.50
2009,04,07,09,44,12.60
2009,04,07,09,45,12.60
2009,04,07,09,46,12.70
2009,04,07,09,47,12.80
2009,04,07,09,48,12.80
2009,04,07,09,49,12.80
2009,04,07,09,50,12.90
2009,04,07,09,51,13.00
2009,04,07,09,52,13.00
2009,04,07,09,53,13.00
2009,04,07,09,54,13.10
2009,04,07,09,55,13.10
2009,04,07,09,56,13.20
2009,04,07,09,57,13.20
2009,04,07,09,58,13.30
2009,04,07,09,59,13.30
2009,04,07,10,00,13.30
2009,04,07,10,01,13.30
2009,04,07,10,02,13.30
2009,04,07,10,03,13.30
2009,04,07,10,04,13.30
2009,04,07,10,05,13.30
2009,04,07,10,06,13.40
2009,04,07,10,07,13.40
2009,04,07,10,08,13.50
2009,04,07,10,09,13.50
2009,04,07,10,10,13.50
2009,04,07,10,11,13.40
2009,04,07,10,12,13.30
2009,04,07,10,13,13.30
2009,04,07,10,14,13.40
2009,04,07,10,15,13.40
2009,04,07,10,16,13.40
2009,04,07,10,17,13.40
2009,04,07,10,18,13.40
2009,04,07,10,19,13.50
2009,04,07,10,20,13.50
2009,04,07,10,21,13.50
2009,04,07,10,22,13.40
2009,04,07,10,23,13.50
2009,04,07,10,24,13.60
2009,04,07,10,25,13.70
2009,04,07,10,26,13.70
2009,04,07,10,27,13.80
2009,04,07,10,28,13.80
2009,04,07,10,29,13.80
2009,04,07,10,30,13.70
2009,04,07,10,31,13.70
2009,04,07,10,32,13.60
2009,04,07,10,33,13.60
2009,04,07,10,34,13.70
2009,04,07,10,35,13.70
2009,04,07,10,36,13.80
2009,04,07,10,37,13.90
2009,04,07,10,38,14.10
2009,04,07,10,39,14.20
2009,04,07,10,40,14.20
2009,04,07,10,41,14.20
2009,04,07,10,42,14.20
2009,04,07,10,43,14.20
2009,04,07,10,44,14.20
2009,04,07,10,45,14.20
2009,04,07,10,46,14.20
2009,04,07,10,47,14.30
2009,04,07,10,48,14.30
2009,04,07,10,49,14.40
2009,04,07,10,50,14.40
2009,04,07,10,51,14.50
2009,04,07,10,52,14.50
2009,04,07,10,53,14.60
2009,04,07,10,54,14.70
2009,04,07,10,55,14.90
2009,04,07,10,56,14.90
2009,04,07,10,57,14.90
2009,04,07,10,58,15.00
2009,04,07,10,59,15.00
2009,04,07,11,00,15.00
2009,04,07,11,01,15.00
2009,04,07,11,02,15.00
2009,04,07,11,03,15.00
2009,04,07,11,04,15.00
2009,04,07,11,05,14.90
2009,04,07,11,06,14.80
2009,04,07,11,07,14.70
2009,04,07,11,08,14.60
2009,04,07,11,09,14.60
2009,04,07,11,10,14.60
2009,04,07,11,11,14.60
2009,04,07,11,12,14.60
2009,04,07,11,13,14.60
2009,04,07,11,14,14.60
2009,04,07,11,15,14.60
2009,04,07,11,16,14.70
2009,04,07,11,17,14.70
2009,04,07,11,18,14.80
2009,04,07,11,19,14.80
2009,04,07,11,20,14.80
2009,04,07,11,21,14.80
2009,04,07,11,22,14.80
2009,04,07,11,23,14.70
2009,04,07,11,24,14.60
2009,04,07,11,25,14.50
2009,04,07,11,26,14.50
2009,04,07,11,27,14.50
2009,04,07,11,28,14.50
2009,04,07,11,29,14.50
2009,04,07,11,30,14.60
2009,04,07,11,31,14.60
2009,04,07,11,32,14.70
2009,04,07,11,33,14.70
2009,04,07,11,34,14.70
2009,04,07,11,35,14.70
2009,04,07,11,36,14.80
2009,04,07,11,37,14.80
2009,04,07,11,38,14.80
2009,04,07,11,39,14.70
2009,04,07,11,40,14.60
2009,04,07,11,41,14.60
2009,04,07,11,42,14.60
2009,04,07,11,43,14.60
2009,04,07,11,44,14.70
2009,04,07,11,45,14.70
2009,04,07,11,46,14.70
2009,04,07,11,47,14.80
2009,04,07,11,48,15.00
2009,04,07,11,49,15.00
2009,04,07,11,50,15.00
2009,04,07,11,51,15.00
2009,04,07,11,52,15.00
2009,04,07,11,53,14.90
2009,04,07,11,54,14.90
2009,04,07,11,55,15.00
2009,04,07,11,56,15.00
2009,04,07,11,57,15.20
2009,04,07,11,58,15.30
2009,04,07,11,59,15.30
2009,04,07,12,00,15.30
2009,04,07,12,01,15.30
2009,04,07,12,02,15.30
2009,04,07,12,03,15.40
2009,04,07,12,04,15.40
2009,04,07,12,05,15.50
2009,04,07,12,06,15.60
2009,04,07,12,07,15.60
2009,04,07,12,08,15.60
2009,04,07,12,09,15.50
2009,04,07,12,10,15.50
2009,04,07,12,11,15.50
2009,04,07,12,12,15.60
2009,04,07,12,13,15.70
2009,04,07,12,14,15.70
2009,04,07,12,15,15.60
2009,04,07,12,16,15.60
2009,04,07,12,17,15.60
2009,04,07,12,18,15.50
2009,04,07,12,19,15.40
2009,04,07,12,20,15.40
2009,04,07,12,21,15.40
2009,04,07,12,22,15.60
2009,04,07,12,23,15.70
2009,04,07,12,24,15.90
2009,04,07,12,25,16.20
2009,04,07,12,26,16.30
2009,04,07,12,27,16.30
2009,04,07,12,28,16.30
2009,04,07,12,29,16.30
2009,04,07,12,30,16.40
2009,04,07,12,31,16.50
2009,04,07,12,32,16.60
2009,04,07,12,33,16.60
2009,04,07,12,34,16.40
2009,04,07,12,35,16.30
2009,04,07,12,36,16.10
2009,04,07,12,37,15.90
2009,04,07,12,38,15.80
2009,04,07,12,39,15.80
2009,04,07,12,40,15.90
2009,04,07,12,41,16.00
2009,04,07,12,42,16.00
2009,04,07,12,43,15.90
2009,04,07,12,44,15.90
2009,04,07,12,45,15.90
2009,04,07,12,46,16.00
2009,04,07,12,47,16.00
2009,04,07,12,48,16.00
2009,04,07,12,49,16.10
2009,04,07,12,50,16.10
2009,04,07,12,51,16.10
2009,04,07,12,52,16.20
2009,04,07,12,53,16.30
2009,04,07,12,54,16.40
2009,04,07,12,55,16.50
2009,04,07,12,56,16.70
2009,04,07,12,57,16.80
2009,04,07,12,58,17.00
2009,04,07,12,59,17.20
2009,04,07,13,00,17.30
2009,04,07,13,01,17.50
2009,04,07,13,02,17.60
2009,04,07,13,03,17.60
2009,04,07,13,04,17.50
2009,04,07,13,05,17.40
2009,04,07,13,06,17.30
2009,04,07,13,07,17.30
2009,04,07,13,08,17.30
2009,04,07,13,09,17.30
2009,04,07,13,10,17.30
2009,04,07,13,11,17.20
2009,04,07,13,12,17.10
2009,04,07,13,13,17.00
2009,04,07,13,14,16.90
2009,04,07,13,15,16.90
2009,04,07,13,16,16.90
2009,04,07,13,17,16.90
2009,04,07,13,18,16.80
2009,04,07,13,19,16.90
2009,04,07,13,20,16.90
2009,04,07,13,21,17.00
2009,04,07,13,22,17.00
2009,04,07,13,23,17.00
2009,04,07,13,24,17.00
2009,04,07,13,25,17.10
2009,04,07,13,26,17.20
2009,04,07,13,27,17.20
2009,04,07,13,28,17.20
2009,04,07,13,29,17.20
2009,04,07,13,30,17.20
2009,04,07,13,31,17.20
2009,04,07,13,32,17.10
2009,04,07,13,33,17.10
2009,04,07,13,34,17.10
2009,04,07,13,35,17.00
2009,04,07,13,36,16.80
2009,04,07,13,37,16.70
2009,04,07,13,38,16.80
2009,04,07,13,39,16.80
2009,04,07,13,40,16.80
2009,04,07,13,41,16.80
2009,04,07,13,42,16.90
2009,04,07,13,43,17.00
2009,04,07,13,44,17.20
2009,04,07,13,45,17.30
2009,04,07,13,46,17.50
2009,04,07,13,47,17.60
2009,04,07,13,48,17.70
2009,04,07,13,49,17.70
2009,04,07,13,50,17.60
2009,04,07,13,51,17.40
2009,04,07,13,52,17.30
2009,04,07,13,53,17.20
2009,04,07,13,54,17.20
2009,04,07,13,55,17.10
2009,04,07,13,56,17.10
2009,04,07,13,57,17.20
2009,04,07,13,58,17.30
2009,04,07,13,59,17.40
2009,04,07,14,00,17.50
2009,04,07,14,01,17.60
2009,04,07,14,02,17.60
2009,04,07,14,03,17.70
2009,04,07,14,04,17.70
2009,04,07,14,05,17.80
2009,04,07,14,06,17.80
2009,04,07,14,07,17.80
2009,04,07,14,08,17.90
2009,04,07,14,09,18.00
2009,04,07,14,10,17.90
2009,04,07,14,11,17.90
2009,04,07,14,12,18.00
2009,04,07,14,13,18.00
2009,04,07,14,14,18.00
2009,04,07,14,15,18.00
2009,04,07,14,16,18.00
2009,04,07,14,17,17.90
2009,04,07,14,18,17.70
2009,04,07,14,19,17.70
2009,04,07,14,20,17.60
2009,04,07,14,21,17.60
2009,04,07,14,22,17.70
2009,04,07,14,23,17.60
2009,04,07,14,24,17.60
2009,04,07,14,25,17.70
2009,04,07,14,26,17.70
2009,04,07,14,27,17.70
2009,04,07,14,28,17.70
2009,04,07,14,29,17.60
2009,04,07,14,30,17.60
2009,04,07,14,31,17.70
2009,04,07,14,32,17.90
2009,04,07,14,33,18.00
2009,04,07,14,34,18.20
2009,04,07,14,35,18.30
2009,04,07,14,36,18.40
2009,04,07,14,37,18.50
2009,04,07,14,38,18.60
2009,04,07,14,39,18.70
2009,04,07,14,40,18.60
2009,04,07,14,41,18.50
2009,04,07,14,42,18.40
2009,04,07,14,43,18.40
2009,04,07,14,44,18.30
2009,04,07,14,45,18.30
2009,04,07,14,46,18.20
2009,04,07,14,47,18.20
2009,04,07,14,48,18.00
2009,04,07,14,49,18.00
2009,04,07,14,50,18.10
2009,04,07,14,51,18.20
2009,04,07,14,52,18.30
2009,04,07,14,53,18.50
2009,04,07,14,54,18.70
2009,04,07,14,55,18.80
2009,04,07,14,56,19.00
2009,04,07,14,57,19.00
2009,04,07,14,58,19.10
2009,04,07,14,59,19.10
2009,04,07,15,00,19.00
2009,04,07,15,01,18.90
2009,04,07,15,02,18.80
2009,04,07,15,03,18.80
2009,04,07,15,04,18.80
2009,04,07,15,05,18.70
2009,04,07,15,06,18.70
2009,04,07,15,07,18.70
2009,04,07,15,08,18.60
2009,04,07,15,09,18.50
2009,04,07,15,10,18.50
2009,04,07,15,11,18.40
2009,04,07,15,12,18.40
2009,04,07,15,13,18.40
2009,04,07,15,14,18.20
2009,04,07,15,15,18.00
2009,04,07,15,16,17.90
2009,04,07,15,17,18.00
2009,04,07,15,18,18.10
2009,04,07,15,19,18.10
2009,04,07,15,20,18.10
2009,04,07,15,21,18.00
2009,04,07,15,22,17.90
2009,04,07,15,23,17.90
2009,04,07,15,24,18.00
2009,04,07,15,25,18.10
2009,04,07,15,26,18.20
2009,04,07,15,27,18.20
2009,04,07,15,28,18.30
2009,04,07,15,29,18.40
2009,04,07,15,30,18.60
2009,04,07,15,31,18.80
2009,04,07,15,32,19.00
2009,04,07,15,33,19.10
2009,04,07,15,34,19.10
2009,04,07,15,35,19.10
2009,04,07,15,36,19.00
2009,04,07,15,37,18.80
2009,04,07,15,38,18.60
2009,04,07,15,39,18.40
2009,04,07,15,40,18.30
2009,04,07,15,41,18.30
2009,04,07,15,42,18.20
2009,04,07,15,43,18.10
2009,04,07,15,44,17.90
2009,04,07,15,45,17.80
2009,04,07,15,46,17.80
2009,04,07,15,47,17.80
2009,04,07,15,48,17.80
2009,04,07,15,49,17.90
2009,04,07,15,50,17.90
2009,04,07,15,51,18.00
2009,04,07,15,52,18.10
2009,04,07,15,53,18.10
2009,04,07,15,54,18.20
2009,04,07,15,55,18.10
2009,04,07,15,56,18.10
2009,04,07,15,57,18.00
2009,04,07,15,58,17.90
2009,04,07,15,59,17.90
2009,04,07,16,00,17.90
2009,04,07,16,01,18.00
2009,04,07,16,02,18.00
2009,04,07,16,03,18.00
2009,04,07,16,04,18.00
2009,04,07,16,05,18.00
2009,04,07,16,06,18.00
2009,04,07,16,07,17.80
2009,04,07,16,08,17.80
2009,04,07,16,09,17.70
2009,04,07,16,10,17.70
2009,04,07,16,11,17.70
2009,04,07,16,12,17.60
2009,04,07,16,13,17.50
2009,04,07,16,14,17.40
2009,04,07,16,15,17.40
2009,04,07,16,16,17.50
2009,04,07,16,17,17.60
2009,04,07,16,18,17.70
2009,04,07,16,19,17.70
2009,04,07,16,20,17.70
2009,04,07,16,21,17.70
2009,04,07,16,22,17.70
2009,04,07,16,23,17.80
2009,04,07,16,24,17.90
2009,04,07,16,25,17.90
2009,04,07,16,26,18.10
2009,04,07,16,27,18.10
2009,04,07,16,28,18.10
2009,04,07,16,29,18.10
2009,04,07,16,30,18.10
2009,04,07,16,31,18.10
2009,04,07,16,32,18.10
2009,04,07,16,33,18.20
2009,04,07,16,34,18.20
2009,04,07,16,35,18.20
2009,04,07,16,36,18.10
2009,04,07,16,37,18.10
2009,04,07,16,38,18.00
2009,04,07,16,39,18.00
2009,04,07,16,40,18.10
2009,04,07,16,41,18.10
2009,04,07,16,42,18.00
2009,04,07,16,43,17.90
2009,04,07,16,44,17.90
2009,04,07,16,45,17.90
2009,04,07,16,46,17.80
2009,04,07,16,47,17.70
2009,04,07,16,48,17.70
2009,04,07,16,49,17.60
2009,04,07,16,50,17.60
2009,04,07,16,51,17.70
2009,04,07,16,52,17.70
2009,04,07,16,53,17.70
2009,04,07,16,54,17.80
2009,04,07,16,55,17.80
2009,04,07,16,56,17.80
2009,04,07,16,57,17.80
2009,04,07,16,58,17.70
2009,04,07,16,59,17.70
2009,04,07,17,00,17.70
2009,04,07,17,01,17.60
2009,04,07,17,02,17.60
2009,04,07,17,03,17.60
2009,04,07,17,04,17.60
2009,04,07,17,05,17.60
2009,04,07,17,06,17.60
2009,04,07,17,07,17.60
2009,04,07,17,08,17.60
2009,04,07,17,09,17.60
2009,04,07,17,10,17.60
2009,04,07,17,11,17.60
2009,04,07,17,12,17.60
2009,04,07,17,13,17.60
2009,04,07,17,14,17.70
2009,04,07,17,15,17.70
2009,04,07,17,16,17.70
2009,04,07,17,17,17.70
2009,04,07,17,18,17.80
2009,04,07,17,19,17.70
2009,04,07,17,20,17.60
2009,04,07,17,21,17.50
2009,04,07,17,22,17.40
2009,04,07,17,23,17.40
2009,04,07,17,24,17.30
2009,04,07,17,25,17.30
2009,04,07,17,26,17.30
2009,04,07,17,27,17.30
2009,04,07,17,28,17.30
2009,04,07,17,29,17.40
2009,04,07,17,30,17.40
2009,04,07,17,31,17.40
2009,04,07,17,32,17.30
2009,04,07,17,33,17.20
2009,04,07,17,34,17.00
2009,04,07,17,35,16.80
2009,04,07,17,36,16.70
2009,04,07,17,37,16.60
2009,04,07,17,38,16.50
2009,04,07,17,39,16.50
2009,04,07,17,40,16.40
2009,04,07,17,41,16.40
2009,04,07,17,42,16.40
2009,04,07,17,43,16.30
2009,04,07,17,44,16.30
2009,04,07,17,45,16.20
2009,04,07,17,46,16.20
2009,04,07,17,47,16.20
2009,04,07,17,48,16.20
2009,04,07,17,49,16.10
2009,04,07,17,50,16.10
2009,04,07,17,51,16.10
2009,04,07,17,52,16.10
2009,04,07,17,53,16.00
2009,04,07,17,54,16.00
2009,04,07,17,55,16.00
2009,04,07,17,56,16.10
2009,04,07,17,57,16.10
2009,04,07,17,58,16.10
2009,04,07,17,59,16.10
2009,04,07,18,00,16.10
2009,04,07,18,01,16.10
2009,04,07,18,02,16.20
2009,04,07,18,03,16.20
2009,04,07,18,04,16.20
2009,04,07,18,05,16.20
2009,04,07,18,06,16.30
2009,04,07,18,07,16.30
2009,04,07,18,08,16.30
2009,04,07,18,09,16.30
2009,04,07,18,10,16.40
2009,04,07,18,11,16.40
2009,04,07,18,12,16.40
2009,04,07,18,13,16.50
2009,04,07,18,14,16.50
2009,04,07,18,15,16.40
2009,04,07,18,16,16.40
2009,04,07,18,17,16.40
2009,04,07,18,18,16.30
2009,04,07,18,19,16.30
2009,04,07,18,20,16.30
2009,04,07,18,21,16.30
2009,04,07,18,22,16.30
2009,04,07,18,23,16.30
2009,04,07,18,24,16.30
2009,04,07,18,25,16.20
2009,04,07,18,26,16.20
2009,04,07,18,27,16.10
2009,04,07,18,28,16.10
2009,04,07,18,29,16.00